Погода в Люберцах

Россия / Московская область     55°40′35″N   37°53′53″E
темп.,
°C
ветер,
м/с
пор.,
м/с
влажн.,
%
обл.,
%
осадки,
мм/ч
давл.,
гПа
погр.,
м
22 апреля, чт
чт2200:00+4ююз3790100 0.1 1011301
03:00+4ююз379298 0.1 1012316
06:00+3ю499166 0.0 1013341
09:00+7ююз4877100 0.0 1014533
12:00+10юз5867100 0.1 10141194
15:00+13юз575636 0.4 10141513
18:00+13ююз47596 0.4 1014949
21:00+9ю310785 0.4 1015298
23 апреля, пт
пт2300:00+8ю4118487 0.0 1015318
03:00+7ю410905 0.0 1014315
06:00+7ю4129061 0.0 1014369
09:00+12ю5126686 0.1 1014699
12:00+16ю7124348 0.1 10132419
15:00+16ю71246100 0.1 10122312
18:00+9з6778100 1.3 1013583
21:00+8з1283100 4.8 1012300
24 апреля, сб
сб2400:00+7зюз2291100 0.8 1010385
03:00+3зсз4695100 8.4 1009407
06:00+2з3699100 6.4 1008331
09:00+3зюз2597100 8.6 1008507
12:00+3сз4892100 0.4 1009426
15:00+8зсз2359100 0.6 10071034
18:00+7сз4566100 0.8 1007856
21:00+4сз267992 1.3 1008309
25 апреля, вс
вс2500:00+3зсз4107410 0.0 1008457
03:00+2з410722 0.0 1009422
06:00+1з410805 0.0 1009567
09:00+4з58575 0.0 10101200
12:00+7зюз6849100 0.4 10091915
15:00+7зюз6846100 1.1 10101979
18:00+7зюз584622 0.4 10101629
21:00+4зюз376122 0.4 1011744
26 апреля, пн
пн2600:00+2зюз38695 0.0 1012441
03:00+1юз37754 0.0 1012305
06:00+1юз37775 0.0 1013304
09:00+5юз46565 0.0 1013866
12:00+8юз4639100 0.1 10122213
15:00+9юз353799 0.1 10112253
18:00+8юз354773 0.2 10101441
21:00+5юз3662100 0.5 1010406